Home   Weather   Qatif   Past weeks

Flag for Saudi Arabia Past Weather in Qatif, Saudi Arabia — Yesterday and Last 2 Weeks

Now
59 °F

Clear.


Feels Like: 58 °F
Forecast: 53 / 70 °F
Wind: 8 mph from Northwest

Location: King Fahd International Airport

Current Time: Jan 17, 2017 at 12:58:05 am

Latest Report: Jan 17, 2017 at 12:00 am


Visibility: 10 mi

Pressure: 30.12 "Hg

Humidity: 72%

Dew Point: 50 °F

Location of QatifLocation

Past Weather in Qatif — Graph

°F

Qatif Temperature Yesterday

Maximum temperature yesterday: 72 °F (at 1:00 pm)
Minimum temperature yesterday: 50 °F (at 5:00 am)
Average temperature yesterday: 61 °F

High & Low Weather Summary for the Past Weeks

 TemperatureHumidityPressure
High81 °F (Jan 9, 1:00 pm)88% (Jan 10, 11:00 pm)30.21 "Hg (Jan 10, 11:00 pm)
Low45 °F (Jan 8, 7:00 am)11% (Jan 12, 3:00 pm)29.89 "Hg (Jan 8, 2:00 pm)
Average61 °F52%30.06 "Hg
* Reported Jan 1 11:00 pm — Jan 16 11:00 pm, Qatif, Weather by CustomWeather, © 2017

Note: Actual official high and low records may vary slightly from our data, if they occured in-between our weather recording intervals... More about our weather records

Advertising

Qatif Weather History for the Previous 24 Hours

Scroll right to see more
 ConditionsComfort  
Time TempWeatherWind HumidityBarometerVisibility
11:00 pm
Mon, Jan 16
61 °FClear.9 mph72%30.12 "Hg10 mi
10:00 pm57 °FClear.8 mph77%30.12 "Hg10 mi
9:00 pm59 °FClear.6 mph72%30.12 "Hg10 mi
8:00 pm61 °FClear.3 mph72%30.09 "Hg5 mi
7:00 pm64 °FClear.7 mph68%30.09 "Hg5 mi
6:00 pm66 °FClear.9 mph64%30.07 "Hg5 mi
5:00 pm68 °FClear.12 mph49%30.04 "Hg5 mi
4:00 pm72 °FSunny.6 mph31%30.01 "Hg10 mi
3:00 pm72 °FSunny.6 mph33%30.01 "Hg10 mi
2:00 pm72 °FSunny.5 mph36%30.01 "Hg10 mi
1:00 pm72 °FSunny.9 mph33%30.01 "Hg10 mi
12:00 pm70 °FSunny.15 mph33%30.01 "Hg10 mi
11:00 am68 °FSunny.15 mph40%30.07 "Hg10 mi
10:00 am66 °FClear.12 mph52%30.07 "Hg5 mi
9:00 am61 °FClear.6 mph77%30.09 "Hg4 mi
8:00 am55 °FClear.No wind82%30.09 "Hg4 mi
7:00 am54 °FFog.2 mph82%30.07 "Hg3 mi
6:24 am54 °FFog.5 mph82%30.04 "Hg3 mi
6:00 am54 °FClear.5 mph77%30.04 "Hg10 mi
5:00 am50 °FClear.6 mph82%30.01 "Hg10 mi
4:00 am52 °FClear.7 mph82%29.98 "Hg10 mi
3:00 am54 °FClear.10 mph77%29.98 "Hg10 mi
2:00 am54 °FClear.8 mph77%30.01 "Hg10 mi
1:00 am54 °FClear.8 mph72%30.01 "Hg10 mi
12:00 am54 °FClear.8 mph72%30.01 "Hg10 mi
Weather by CustomWeather, © 2017

See weather overviewHow to use our weather pages